Portada
METAR-TAF:

METAR-TAF

Aeroports :

Vinton Veterans Memorial Airpark

Vinton, Iowa, Estats Units d'Amèrica

latitud: 42-13-07N, longitud: 092-01-33W, altitud: 258 m

Observació

L'informe es va fer fa 14 minuts, a les 12:55 UTC
Vent 4 kt del Sud
Temperatura -7°C
Humitat 93%
Pressió 1017 hPa
Visibilitat: 11.3 km
Cel clar

METAR: KVTI 111255Z AUTO 19004KT 7SM CLR M07/M08 A3003 RMK AO2 T10681081

Hora: 07:09 (13:09 UTC)


TAF: manca

Observacions i pronòstics meteorològics de més de 4000 aeroports (METAR i TAF).

Les estacions disponibles són els punts grocs i vermells al mapa.

Posi el ratolí al punt desitjat per veure el nom de l'estació.

Feu clic per veure les observacions i els pronòstics meteorològics.

Per canviar el mapa: feu clic els botons verds amb una creu de color negre per apropar; al botó verd amb un guió per allunyar la imatge; o en les fletxes verdes per a mapes adjacents.


METAR-TAF: